Location: Seattle
(47.6064°N, 122.3308°W)
Time: 03:59:41
(UTC-07:00)

Explorer 7 - Pass Details

Date: 03 August 2021
Orbit: 484 x 676 km, 50.3° (Epoch: 15 September)

Event Time Altitude Azimuth Distance (km) Brightness Sun altitude
Exits shadow 04:45:37 - 196° (SSW) 1,712 8.8 -9.9°
Reaches altitude 10° 04:45:46 10° 195° (SSW) 1,663 8.8 -9.8°
Maximum altitude 04:48:47 23° 141° (SE) 1,073 8.3 -9.4°
Drops below altitude 10° 04:51:53 10° 87° (E) 1,710 10.2 -9.0°
Sets 04:54:25 0° 73° (ENE) 2,625 11.8 -8.7°
